When you browse on this site, cookies collect data to enhance your experience and personalize the content and advertising you see.
Visit our Privacy Policy to learn more. By continuing to use the site, you agree to this use of cookies and data.
  • In United Kingdom
  • List of Countries
  • For 7 days
  • Water Temperature
  • Satellite Maps
  • Weather Map
  • Weather Widgets
  • user-avatar
    Login

    Hourly Weather Siguiri

    Today, 17 February, Sunday

    Time Temperature Precipitation Wind Pressure Humidity
    00:00 +18°C° 0 mm 2 mps 718 mmHg 23%
    01:00 +17°C° 0 mm 2 mps 718 mmHg 24%
    02:00 +17°C° 0 mm 2 mps 717 mmHg 24%
    03:00 +16°C° 0 mm 2 mps 717 mmHg 25%
    04:00 +16°C° 0 mm 2 mps 717 mmHg 26%
    05:00 +16°C° 0 mm 2 mps 717 mmHg 26%
    06:00 +15°C° 0 mm 2 mps 718 mmHg 26%
    07:00 +15°C° 0 mm 2 mps 718 mmHg 26%
    08:00 +18°C° 0 mm 2 mps 718 mmHg 23%
    09:00 +21°C° 0 mm 3 mps 719 mmHg 19%
    10:00 +25°C° 0 mm 4 mps 719 mmHg 15%
    11:00 +27°C° 0 mm 4 mps 719 mmHg 14%
    12:00 +29°C° 0 mm 4 mps 718 mmHg 13%
    13:00 +33°C° 0 mm 4 mps 718 mmHg 11%
    14:00 +34°C° 0 mm 3 mps 717 mmHg 11%
    15:00 +34°C° 0 mm 3 mps 716 mmHg 11%
    16:00 +35°C° 0 mm 3 mps 716 mmHg 11%
    17:00 +33°C° 0 mm 3 mps 716 mmHg 13%
    18:00 +30°C° 0 mm 3 mps 715 mmHg 15%
    19:00 +28°C° 0 mm 3 mps 715 mmHg 17%
    20:00 +27°C° 0 mm 3 mps 716 mmHg 18%
    21:00 +25°C° 0 mm 3 mps 717 mmHg 19%
    22:00 +24°C° 0 mm 3 mps 717 mmHg 19%
    23:00 +23°C° 0 mm 2 mps 717 mmHg 19%

    Tomorrow, 18 February, Monday

    Time Temperature Precipitation Wind Pressure Humidity
    00:00 +21°C° 0 mm 2 mps 717 mmHg 19%
    01:00 +20°C° 0 mm 2 mps 717 mmHg 19%
    02:00 +20°C° 0 mm 2 mps 717 mmHg 20%
    03:00 +19°C° 0 mm 2 mps 716 mmHg 20%
    04:00 +19°C° 0 mm 2 mps 716 mmHg 20%
    05:00 +19°C° 0 mm 2 mps 716 mmHg 20%
    06:00 +18°C° 0 mm 2 mps 716 mmHg 20%
    07:00 +18°C° 0 mm 2 mps 716 mmHg 20%
    08:00 +21°C° 0 mm 2 mps 717 mmHg 16%
    09:00 +25°C° 0 mm 3 mps 717 mmHg 13%
    10:00 +28°C° 0 mm 4 mps 718 mmHg 9%
    11:00 +30°C° 0 mm 4 mps 717 mmHg 9%
    12:00 +33°C° 0 mm 4 mps 717 mmHg 9%
    13:00 +35°C° 0 mm 3 mps 716 mmHg 8%
    14:00 +36°C° 0 mm 3 mps 716 mmHg 8%
    15:00 +37°C° 0 mm 3 mps 715 mmHg 8%
    16:00 +37°C° 0 mm 3 mps 714 mmHg 8%
    17:00 +35°C° 0 mm 3 mps 714 mmHg 10%
    18:00 +33°C° 0 mm 3 mps 714 mmHg 11%
    19:00 +29°C° 0 mm 3 mps 714 mmHg 13%
    20:00 +28°C° 0 mm 3 mps 715 mmHg 13%
    21:00 +27°C° 0 mm 3 mps 715 mmHg 14%
    22:00 +25°C° 0 mm 3 mps 716 mmHg 14%
    23:00 +24°C° 0 mm 3 mps 716 mmHg 15%

    Day after tomorrow, 19 February, Tuesday

    Time Temperature Precipitation Wind Pressure Humidity
    00:00 +24°C° 0 mm 3 mps 715 mmHg 15%
    01:00 +23°C° 0 mm 2 mps 715 mmHg 16%
    02:00 +21°C° 0 mm 2 mps 715 mmHg 17%
    03:00 +20°C° 0 mm 2 mps 714 mmHg 18%
    04:00 +20°C° 0 mm 1 mps 714 mmHg 19%
    05:00 +20°C° 0 mm 1 mps 714 mmHg 19%
    06:00 +20°C° 0 mm 1 mps 715 mmHg 19%
    07:00 +18°C° 0 mm 2 mps 715 mmHg 19%
    08:00 +23°C° 0 mm 2 mps 716 mmHg 16%
    09:00 +26°C° 0 mm 3 mps 717 mmHg 13%
    10:00 +29°C° 0 mm 4 mps 718 mmHg 10%
    11:00 +32°C° 0 mm 4 mps 717 mmHg 10%
    12:00 +34°C° 0 mm 4 mps 716 mmHg 9%
    13:00 +36°C° 0 mm 4 mps 716 mmHg 8%
    14:00 +36°C° 0 mm 3 mps 715 mmHg 8%
    15:00 +37°C° 0 mm 3 mps 714 mmHg 8%
    16:00 +38°C° 0 mm 2 mps 713 mmHg 8%
    17:00 +35°C° 0 mm 3 mps 713 mmHg 10%
    18:00 +33°C° 0 mm 3 mps 713 mmHg 11%
    19:00 +30°C° 0 mm 3 mps 713 mmHg 13%
    20:00 +28°C° 0 mm 3 mps 714 mmHg 13%
    21:00 +27°C° 0 mm 3 mps 715 mmHg 14%
    22:00 +26°C° 0 mm 2 mps 715 mmHg 15%
    23:00 +25°C° 0 mm 2 mps 715 mmHg 16%

    20 February, Wednesday

    Time Temperature Precipitation Wind Pressure Humidity
    00:00 +24°C° 0 mm 3 mps 715 mmHg 16%
    01:00 +22°C° 0 mm 3 mps 715 mmHg 17%
    02:00 +23°C° 0 mm 2 mps 714 mmHg 18%
    03:00 +21°C° 0 mm 2 mps 714 mmHg 19%
    04:00 +20°C° 0 mm 2 mps 714 mmHg 20%
    05:00 +20°C° 0 mm 2 mps 714 mmHg 19%
    06:00 +19°C° 0 mm 2 mps 715 mmHg 19%
    07:00 +19°C° 0 mm 2 mps 715 mmHg 19%
    08:00 +23°C° 0 mm 2 mps 716 mmHg 16%
    09:00 +26°C° 0 mm 3 mps 716 mmHg 13%
    10:00 +30°C° 0 mm 4 mps 717 mmHg 9%
    11:00 +33°C° 0 mm 3 mps 717 mmHg 9%
    12:00 +35°C° 0 mm 3 mps 716 mmHg 8%
    13:00 +38°C° 0 mm 3 mps 715 mmHg 7%
    14:00 +38°C° 0 mm 3 mps 715 mmHg 7%
    15:00 +39°C° 0 mm 3 mps 714 mmHg 7%
    16:00 +39°C° 0 mm 3 mps 713 mmHg 7%
    17:00 +37°C° 0 mm 3 mps 714 mmHg 9%
    18:00 +35°C° 0 mm 3 mps 714 mmHg 10%
    19:00 +31°C° 0 mm 3 mps 714 mmHg 11%
    20:00 +30°C° 0 mm 2 mps 715 mmHg 12%
    21:00 +29°C° 0 mm 2 mps 715 mmHg 13%
    22:00 +27°C° 0 mm 2 mps 716 mmHg 13%
    23:00 +26°C° 0 mm 2 mps 716 mmHg 14%

    21 February, Thursday

    Time Temperature Precipitation Wind Pressure Humidity
    00:00 +26°C° 0 mm 2 mps 715 mmHg 14%
    01:00 +25°C° 0 mm 2 mps 715 mmHg 15%
    02:00 +24°C° 0 mm 2 mps 715 mmHg 16%
    03:00 +23°C° 0 mm 2 mps 714 mmHg 17%
    04:00 +23°C° 0 mm 2 mps 714 mmHg 18%
    05:00 +21°C° 0 mm 2 mps 714 mmHg 18%
    06:00 +21°C° 0 mm 2 mps 715 mmHg 18%
    07:00 +21°C° 0 mm 2 mps 715 mmHg 18%
    08:00 +25°C° 0 mm 2 mps 716 mmHg 15%
    09:00 +29°C° 0 mm 2 mps 716 mmHg 12%
    10:00 +33°C° 0 mm 3 mps 717 mmHg 9%
    11:00 +35°C° 0 mm 3 mps 717 mmHg 8%
    12:00 +37°C° 0 mm 2 mps 716 mmHg 7%
    13:00 +39°C° 0 mm 2 mps 715 mmHg 7%
    14:00 +40°C° 0 mm 2 mps 715 mmHg 6%
    15:00 +40°C° 0 mm 2 mps 714 mmHg 6%
    16:00 +42°C° 0 mm 3 mps 714 mmHg 5%
    17:00 +38°C° 0 mm 3 mps 714 mmHg 6%
    18:00 +36°C° 0 mm 3 mps 714 mmHg 7%
    19:00 +33°C° 0 mm 3 mps 714 mmHg 8%
    20:00 +31°C° 0 mm 3 mps 715 mmHg 8%
    21:00 +30°C° 0 mm 2 mps 715 mmHg 9%
    22:00 +29°C° 0 mm 2 mps 716 mmHg 9%
    23:00 +28°C° 0 mm 2 mps 716 mmHg 10%

    22 February, Friday

    Time Temperature Precipitation Wind Pressure Humidity
    00:00 +27°C° 0 mm 1 mps 715 mmHg 10%
    01:00 +26°C° 0 mm 1 mps 715 mmHg 11%
    02:00 +25°C° 0 mm 1 mps 715 mmHg 11%
    03:00 +25°C° 0 mm 1 mps 715 mmHg 11%
    04:00 +25°C° 0 mm 1 mps 714 mmHg 11%
    05:00 +24°C° 0 mm 1 mps 715 mmHg 12%
    06:00 +23°C° 0 mm 1 mps 715 mmHg 12%
    07:00 +23°C° 0 mm 1 mps 716 mmHg 13%
    08:00 +26°C° 0 mm 2 mps 716 mmHg 10%
    09:00 +30°C° 0 mm 3 mps 717 mmHg 8%
    10:00 +35°C° 0 mm 3 mps 717 mmHg 5%
    11:00 +36°C° 0 mm 3 mps 717 mmHg 5%
    12:00 +38°C° 0 mm 3 mps 716 mmHg 5%
    13:00 +40°C° 0 mm 3 mps 715 mmHg 4%
    14:00 +40°C° 0 mm 3 mps 715 mmHg 4%
    15:00 +42°C° 0 mm 3 mps 714 mmHg 4%
    16:00 +41°C° 0 mm 2 mps 713 mmHg 5%
    17:00 +38°C° 0 mm 2 mps 713 mmHg 6%
    18:00 +36°C° 0 mm 2 mps 713 mmHg 6%
    19:00 +32°C° 0 mm 2 mps 714 mmHg 7%
    20:00 +31°C° 0 mm 2 mps 714 mmHg 8%
    21:00 +30°C° 0 mm 2 mps 714 mmHg 9%
    22:00 +29°C° 0 mm 1 mps 715 mmHg 9%
    23:00 +28°C° 0 mm 1 mps 714 mmHg 10%
    Show more